Find Starlink 4718

NORAD ID: 53773 Int'l Des: 2022-111 Owner: SPXS Country: US Constellation: starlink operational
LEOCIRCULAR

リアルタイム位置

3D地球を読み込み中...

Starlink 4718について

説明を読み込み中...

次回通過

Passes for default location (London). Set your location on the main map for personalized predictions.

高度履歴

Loading altitude history...

軌道要素

1 53773U 22111A 26120.99787272 -.00000607 00000-0 -20040-4 0 9999
2 53773 53.2184 49.2220 0001418 82.9765 277.1388 15.08845246201743
Epoch: Apr 30, 2026 • Age: 24 hours

現在のステータス

高度 543.9 km
速度 7.60 km/s
衛星直下点 46.67°N, 124.43°W
打ち上げ日 Sep 11, 2022
運用期間 3.6 years
タイプ internet

技術仕様

分類 Payload
質量 305.00 kg
乾燥質量 290.00 kg
総質量 305.00 kg
長さ 0.20 m
直径 2.80 m
スパン 9.00 m
形状 Box + pan
製造者 SPXS
バスタイプ Starlink
フェーズステータス In Orbit
所有者/国 SPXS/US

Most Searched